Home   Weather   Tehran   Past weeks

Flag for Iran Past Weather in Tehran, Iran — Yesterday and Last 2 Weeks

Now
45 °F

More clouds than sun.


Feels Like: 42 °F
Forecast: 32 / 46 °F
Wind: 5 mph from East

Location: Tehran-Mehrabad

Current Time: Jan 21, 2017 at 12:32:54 pm

Latest Report: Jan 21, 2017 at 11:30 am


Visibility: 3 mi

Pressure: 30.07 "Hg (26.04 "Hg at 1179m altitude)

Humidity: 57%

Dew Point: 30 °F

Location of TehranLocation

Past Weather in Tehran — Graph

°F

Tehran Temperature Yesterday

Maximum temperature yesterday: 50 °F (at 2:00 pm)
Minimum temperature yesterday: 37 °F (at 7:00 am)
Average temperature yesterday: 44 °F

High & Low Weather Summary for the Past Weeks

 TemperatureHumidityPressure
High55 °F (Jan 11, 2:00 pm)81% (Jan 10, 3:30 am)30.24 "Hg (Jan 10, 3:30 am)
Low32 °F (Jan 8, 5:30 am)16% (Jan 12, 2:30 pm)29.77 "Hg (Jan 13, 3:30 pm)
Average42 °F47%30.08 "Hg
* Reported Jan 6 11:30 am — Jan 21 11:30 am, Tehran, Weather by CustomWeather, © 2017

Note: Actual official high and low records may vary slightly from our data, if they occured in-between our weather recording intervals... More about our weather records

Advertising

Tehran Weather History for the Previous 24 Hours

Scroll right to see more
 ConditionsComfort  
Time TempWeatherWind HumidityBarometerVisibility
11:30 am
Sat, Jan 21
45 °FMore clouds than sun.5 mph57%30.07 "Hg3 mi
11:00 am45 °FMore clouds than sun.5 mph57%30.07 "Hg3 mi
10:30 am45 °FLight rain. More clouds than sun.No wind57%30.09 "Hg3 mi
10:00 am45 °FMore clouds than sun.5 mph61%30.09 "Hg2 mi
9:30 am43 °FMore clouds than sun.No wind66%30.07 "Hg2 mi
9:00 am43 °FBroken clouds.7 mph71%30.07 "Hg2 mi
8:30 am43 °FMore clouds than sun.5 mph71%30.07 "Hg2 mi
8:00 am41 °FMore clouds than sun.No wind76%30.07 "Hg2 mi
7:30 am41 °FLight rain. Mostly cloudy.5 mph76%30.07 "Hg2 mi
7:00 am41 °FLight rain. Mostly cloudy.5 mph70%30.07 "Hg2 mi
6:30 am41 °FMostly cloudy.7 mph76%30.07 "Hg4 mi
6:00 am41 °FMostly cloudy.7 mph76%30.04 "Hg4 mi
5:30 am41 °FLight rain. Mostly cloudy.7 mph76%30.04 "Hg4 mi
4:30 am43 °FMostly cloudy.5 mph66%30.04 "Hg4 mi
4:00 am43 °FMostly cloudy.5 mph66%30.07 "Hg4 mi
3:30 am43 °FLight rain. Mostly cloudy.5 mph66%30.07 "Hg4 mi
3:00 am43 °FMostly cloudy.7 mph66%30.07 "Hg4 mi
2:30 am43 °FLight rain. Mostly cloudy.7 mph66%30.07 "Hg3 mi
2:00 am43 °FLight rain. Mostly cloudy.7 mph61%30.07 "Hg4 mi
1:39 am45 °FSprinkles. Mostly cloudy.7 mph53%30.07 "Hg4 mi
1:30 am43 °FPassing clouds.5 mph57%30.07 "Hg5 mi
1:00 am43 °FPassing clouds.5 mph57%30.07 "Hg5 mi
12:30 am45 °FPassing clouds.5 mph49%30.07 "Hg4 mi
12:00 am45 °FPassing clouds.5 mph53%30.07 "Hg4 mi
11:30 pm
Fri, Jan 20
45 °FPassing clouds.5 mph49%30.07 "Hg4 mi
11:00 pm45 °FPassing clouds.5 mph49%30.09 "Hg4 mi
10:30 pm45 °FPassing clouds.No wind49%30.09 "Hg4 mi
10:00 pm45 °FClear.7 mph49%30.09 "Hg4 mi
9:30 pm46 °FClear.7 mph46%30.09 "Hg4 mi
9:00 pm46 °FClear.6 mph46%30.09 "Hg4 mi
8:30 pm46 °FClear.6 mph50%30.09 "Hg4 mi
8:00 pm46 °FPassing clouds.9 mph50%30.09 "Hg4 mi
7:30 pm46 °FPassing clouds.9 mph50%30.07 "Hg4 mi
7:00 pm46 °FClear.5 mph43%30.07 "Hg4 mi
6:30 pm46 °FClear.5 mph43%30.07 "Hg4 mi
6:00 pm46 °FPassing clouds.5 mph43%30.07 "Hg4 mi
5:30 pm48 °FPassing clouds.7 mph40%30.07 "Hg4 mi
5:00 pm48 °FPassing clouds.7 mph40%30.07 "HgN/A
4:30 pm50 °FPassing clouds.7 mph37%30.07 "HgN/A
4:00 pm50 °FPassing clouds.9 mph37%30.07 "HgN/A
3:30 pm50 °FPassing clouds.9 mph37%30.07 "HgN/A
3:00 pm50 °FPassing clouds.9 mph40%30.07 "Hg5 mi
2:30 pm50 °FPassing clouds.7 mph40%30.07 "Hg5 mi
2:00 pm50 °FPassing clouds.7 mph40%30.09 "Hg4 mi
1:30 pm48 °FPassing clouds.7 mph43%30.09 "Hg4 mi
1:00 pm48 °FPassing clouds.9 mph43%30.12 "Hg4 mi
12:30 pm48 °FPassing clouds.7 mph40%30.12 "Hg4 mi
12:00 pm48 °FScattered clouds.7 mph40%30.15 "Hg3 mi
Weather by CustomWeather, © 2017

See weather overviewHow to use our weather pages